Regional Weather Roundup
Issued by NWS Green Bay, WI

Home | Current Version | Previous Version | Graphics & Text | Print | Product List | Glossary Off
Versions: 1 2 3 4 5 6 7 8 9 10 11 12 13 14 15 16 17 18 19 20 21 22 23 24 25 26 27 28 29 30 31 32 33 34 35 36 37 38 39 40 41 42 43 44 45 46 47 48 49 50

000
ASUS43 KGRB 191359
RWRGRB

NORTH-CENTRAL AND NORTHEAST WISCONSIN REGIONAL WEATHER ROUNDUP
NATIONAL WEATHER SERVICE GREEN BAY WI
900 AM CDT SUN APR 19 2015

WIZ005-009-010>012-018-019-191500-
NORTH CENTRAL WISCONSIN

CITY           SKY/WX    TMP DP  RH WIND       PRES   REMARKS
IRONWOOD       CLOUDY    43  30  61 SE14G30   29.75F
MANITOWISH WTR NOT AVBL
ARBOR VITAE    NOT AVBL
EAGLE RIVER    NOT AVBL
LAND O LAKES   NOT AVBL
RHINELANDER    CLOUDY    47  27  45 SE13      29.85F
PHILLIPS       NOT AVBL
ANTIGO         NOT AVBL
TOMAHAWK       NOT AVBL
MERRILL        NOT AVBL
$$

WIZ013-073-191500-
NORTHEAST WISCONSIN

CITY           SKY/WX    TMP DP  RH WIND       PRES   REMARKS
IRON MOUNTAIN  CLOUDY    44  27  51 SE10      29.92F
MARINETTE      PTSUNNY   46  30  53 E10       29.94F
$$

WIZ017-030-035>037-045-191500-
CENTRAL WISCONSIN

CITY           SKY/WX    TMP DP  RH WIND       PRES   REMARKS
MEDFORD        NOT AVBL
WAUSAU         MOSUNNY   49  29  46 SE13      29.83F
MOSINEE        NOT AVBL
MARSHFIELD     CLOUDY    52  30  43 SE16      29.81F
WISC RAPIDS    CLOUDY    53  27  36 SE9       29.84F
STEVENS POINT  NOT AVBL
WAUPACA        NOT AVBL
SHAWANO        NOT AVBL
CLINTONVILLE   NOT AVBL
$$

WIZ038-039-048-051-191500-
FOX VALLEY

CITY           SKY/WX    TMP DP  RH WIND       PRES   REMARKS
NWS GREEN BAY  CLOUDY    49  32  52 SE10      29.90F
APPLETON       PTSUNNY   48  30  49 SE14G23   29.88F
OSHKOSH        MOSUNNY   51  31  46 SE12G22   29.86F
FOND DU LAC    PTSUNNY   50  30  46 SE16      29.85F
$$

WIZ022-050-052-191500-
EAST CENTRAL WISCONSIN

CITY           SKY/WX    TMP DP  RH WIND       PRES   REMARKS
STURGEON BAY   MOSUNNY   45  28  53 E12       29.95F
MANITOWOC      NOT AVBL
SHEBOYGAN      MOSUNNY   49  31  49 SE12G18   29.91F
$$

LMZ563-521-522-541>543-191500-
LAKESHORE

STATION/POSITION TIME  TEMP    WIND        PRES    VSBY  WAVE
                       AIR SEA DIR/SP/G                  HT/PER
                 (UTC) (F)     (DEG/KT/KT) (MB)    (MI)  (FT/S)
SHEBOYGAN LKSHOR 1300   45     180/  5/  7 1014.3F
KEWAUNEE LKSHORE 1300   42      70/  3/  6 1013.1F
NORTHPORT PIER   1300   40      80/  9/ 12 1015.2F
SISTER BAY LKSHO 1300   49     100/ 13/ 18   N/A
CHAMBERS ISLAND  1300   44      70/  6/  9 1014.9F
MENOMINEE LKSHOR 1300   41      30/ 11/ 12 1015.0F
$$



USA.gov is the U.S. government's official web portal to all federal, state and local government web resources and services.